Lid_Strength_Index
-1 -1 -0 -0 -1 -0 -0 -1 -1 -0 -0 -0 -1 -0 0 0 0 0 -0 -0 -0 -1 -1 -1 -1 -1 3 7 7 3 -0 0 3 5 6 7 10 10 11 11 10 12 11 10 9 9 10
-1 -1 -1 -1 -0 -0 -0 -0 -1 -1 -1 -0 -0 -0 0 0 0 0 -0 -0 -0 -0 -0 -1 -1 -0 5 10 3 3 3 4 5 6 7 8 9 9 10 11 11 10 10 10 9 10 10
0 -1 -1 -0 -0 0 0 0 0 -1 -1 -1 -0 -0 -0 -0 0 0 -0 -0 -0 -0 -0 -1 -1 2 6 7 3 5 5 6 6 6 7 7 7 9 10 11 10 10 13 12 11 10 10
-0 -0 0 -0 -1 -0 0 0 0 0 0 0 -0 -0 0 -0 -0 0 -0 -0 -0 -0 -0 -1 -1 4 8 4 4 5 5 6 6 6 6 7 7 8 9 9 10 13 13 15 12 11 11
-0 -0 -0 0 0 0 -0 -0 0 0 1 1 1 0 0 0 -0 0 -0 -0 -0 -0 -1 -1 4 6 9 3 4 4 6 7 7 7 7 5 7 10 10 13 14 14 16 15 13 11 12
-1 -0 0 0 0 -0 0 -0 -0 0 1 1 2 2 1 0 -0 -0 -0 -0 -0 0 1 1 3 9 8 7 5 5 6 6 7 8 9 9 11 12 13 14 16 16 16 15 14 12 13
-0 0 -0 0 1 1 1 -0 -0 -1 0 1 1 2 2 2 1 1 2 3 6 7 6 10 8 10 8 7 5 6 5 7 7 9 12 11 13 14 12 13 13 14 15 15 13 11 13
-0 -0 0 0 0 1 1 1 1 0 -1 0 1 1 1 1 1 1 3 6 6 5 8 5 5 6 7 6 9 7 6 9 10 12 11 12 14 11 11 11 12 13 15 15 13 12 13
-1 -0 -0 0 -0 0 0 1 1 1 0 0 1 1 2 2 1 2 4 4 3 4 9 8 5 6 7 7 8 8 7 9 11 12 12 13 11 10 11 12 13 13 14 14 13 13 14
0 -0 -0 0 1 0 -0 -0 0 1 1 1 1 1 2 1 3 4 5 2 3 3 15 13 8 7 8 7 9 6 7 8 11 12 12 12 10 11 12 12 12 14 12 12 13 15 17
1 1 0 0 0 0 0 -0 -0 -0 1 1 1 1 1 1 3 5 4 2 2 5 20 12 9 6 8 8 10 9 8 9 11 11 11 13 12 12 12 12 11 13 11 13 14 15 17
0 1 1 1 1 1 0 0 0 -0 -0 1 0 1 1 2 2 2 2 2 4 13 20 13 9 10 10 9 11 10 9 9 9 11 12 12 11 11 11 11 10 11 12 13 14 15 19
-1 -0 0 1 2 1 1 1 1 0 -0 0 0 0 1 1 4 1 2 5 16 17 12 13 13 11 11 11 12 11 12 12 13 14 14 13 13 12 11 12 12 12 14 18 19 20 19
-0 -0 -0 -0 1 1 2 1 1 0 0 0 0 0 0 0 1 0 3 10 18 15 13 11 11 12 13 12 12 13 13 13 11 13 15 15 17 13 11 12 13 14 14 18 21 21 20
1 0 0 -0 -0 0 1 2 2 1 0 -0 0 2 1 0 0 1 7 15 15 13 11 11 11 13 13 13 13 14 15 14 12 12 14 15 15 13 13 11 11 15 16 13 17 25 22
1 1 0 0 0 0 0 1 1 1 0 -0 4 4 3 -0 -0 3 9 13 12 10 10 10 13 12 14 14 14 15 15 13 13 12 12 13 16 15 14 12 13 14 12 17 18 23 24
1 1 1 1 0 0 0 0 1 1 0 0 5 6 4 -0 1 7 13 12 10 8 8 11 11 12 13 13 14 15 15 13 12 13 11 12 13 17 15 15 15 15 16 15 15 18 21
2 1 1 1 1 1 0 0 1 1 0 2 4 9 3 0 9 8 11 10 8 8 7 8 8 10 11 12 13 14 15 13 11 11 13 12 13 19 16 15 15 15 15 15 18 19 19
1 1 1 1 1 1 1 1 1 1 1 4 6 8 4 2 12 11 9 9 8 9 9 9 10 9 10 11 13 13 13 11 10 11 13 11 14 20 18 16 16 16 14 13 14 17 19
1 1 1 2 2 2 1 2 2 1 1 4 7 11 8 6 6 9 10 10 11 8 9 8 9 8 10 11 10 12 12 11 10 10 9 9 13 15 16 16 14 17 16 14 13 16 16
1 2 2 2 2 2 2 2 2 2 0 5 8 9 9 11 10 9 9 10 11 11 8 8 10 10 11 13 12 12 10 11 11 10 10 10 14 14 12 13 13 14 15 14 15 14 15
1 2 2 2 2 2 1 1 1 2 0 4 9 9 8 9 8 9 9 11 11 10 10 11 11 10 10 12 11 13 11 10 11 11 11 11 14 12 14 12 14 15 15 14 14 13 13
1 1 1 2 2 2 1 1 0 -0 -0 4 5 4 6 8 9 10 10 10 10 9 9 8 9 10 11 10 8 7 7 8 8 10 11 11 13 15 17 13 14 17 14 14 14 13 13
1 1 1 1 2 2 1 1 -0 -1 -0 2 3 5 7 11 10 10 9 9 9 9 10 9 8 9 8 7 7 7 8 8 9 9 9 13 13 13 17 15 21 13 10 10 11 12 12
1 1 1 1 1 1 1 0 -0 -1 -1 2 3 4 7 10 8 9 9 9 9 8 9 9 8 8 8 9 12 13 13 13 12 10 10 10 12 15 18 18 15 14 15 13 13 13 10
1 1 1 1 1 1 1 0 -0 -1 -2 0 2 3 5 9 10 7 9 9 10 11 12 11 11 10 8 11 13 16 17 15 16 14 11 10 10 14 16 19 20 15 15 12 11 15 11
1 1 1 0 -0 0 -0 -0 -0 -1 -1 0 3 2 4 8 6 7 9 11 9 11 15 12 11 11 10 12 14 15 16 13 16 16 16 14 14 16 16 17 16 16 17 13 16 15 19
1 0 -0 -0 -0 -0 -0 -0 -1 -1 -1 0 3 1 5 7 6 5 6 8 9 10 12 14 10 11 12 13 13 14 14 14 14 14 16 15 16 16 15 17 19 15 16 14 14 17 16
0 -0 -1 -1 -1 -0 -0 -0 -1 -1 -1 -1 4 1 1 6 6 5 5 5 5 6 7 9 10 13 10 11 12 12 14 13 13 16 14 15 13 14 14 14 14 14 14 14 15 15 14